Snowfall_Accumulation
0.2 1.1 0.5 0.0 0.0 0.0 0.0 0.0 0.0 0.1 0.0 0.0 0.0 0.0 0.0 0.1 0.0 0.0 0.0 0.0 0.0 0.0 0.0 0.0 0.0 0.0 0.0
0.8 0.6 0.3 0.0 0.0 0.0 0.0 0.2 0.1 0.0 0.0 0.0 0.0 0.0 0.0 0.0 0.0 0.3 0.1 0.0 0.0 0.0 0.0 0.0 0.0 0.0 0.0
0.5 0.0 0.2 1.0 0.1 0.0 0.0 0.0 0.0 0.0 0.0 0.0 0.0 0.0 0.0 0.1 0.2 0.3 0.5 0.6 0.4 0.0 0.0 0.0 0.0 0.0 0.0
3.3 2.7 0.5 0.1 0.3 0.0 0.0 0.0 0.0 0.0 0.0 0.0 0.0 0.0 0.0 0.0 0.0 0.0 0.0 0.0 0.0 0.0 0.1 0.1 0.1 0.0 0.0
5.5 6.6 2.8 3.9 0.0 0.0 0.0 0.0 0.3 0.0 0.0 0.0 0.0 0.0 0.0 0.0 0.0 0.0 0.0 0.0 0.2 0.5 0.3 0.6 0.9 0.3 0.0
5.6 4.2 2.1 3.5 0.1 1.7 5.1 2.4 3.6 0.0 0.0 0.2 0.0 0.0 0.0 0.0 0.0 0.1 0.2 0.1 0.1 0.2 0.5 0.8 0.6 0.5 0.3
2.4 3.3 2.8 0.4 3.6 5.7 5.3 4.2 3.8 0.0 0.4 0.5 0.1 0.0 0.0 0.0 0.0 0.0 0.0 0.1 0.2 0.4 0.6 0.8 0.9 0.6 0.4
0.6 1.4 1.9 1.8 5.3 1.8 2.0 5.4 2.1 0.1 0.2 4.1 0.1 0.1 0.0 0.0 0.0 0.0 0.0 0.1 0.5 1.1 0.6 0.5 0.6 0.8 0.7
0.9 0.7 0.4 0.1 0.2 5.8 6.7 9.9 9.1 2.5 0.0 1.6 0.6 0.3 0.1 0.0 0.0 0.0 0.0 0.8 0.3 0.3 0.7 0.8 0.9 0.8 0.8
0.2 0.0 0.0 0.0 0.1 1.1 10.7 21.9 11.8 5.8 0.0 5.4 1.4 2.0 5.4 0.0 0.1 0.0 0.0 0.0 0.0 0.3 0.4 0.9 1.1 1.4 1.7
0.4 0.2 0.3 0.7 0.3 0.2 4.0 17.4 19.1 16.2 0.1 14.6 15.4 7.5 8.6 4.0 2.1 2.5 1.9 1.8 2.0 2.5 4.0 2.7 2.8 3.1 4.9
2.0 1.1 0.5 0.7 0.8 1.9 3.0 7.3 7.8 14.5 9.9 9.4 32.3 16.7 16.9 13.7 4.9 4.9 4.3 6.6 8.3 8.2 10.2 4.2 2.6 2.3 2.8
2.6 1.3 0.4 0.4 0.7 1.8 1.9 3.6 5.1 7.6 11.1 12.6 12.9 16.4 21.0 20.1 11.4 4.4 6.6 7.1 8.3 9.4 8.3 8.6 6.8 4.7 3.2
3.0 1.0 0.4 0.7 1.2 2.3 5.9 6.4 11.0 7.1 9.9 6.9 9.0 14.8 16.3 10.1 10.8 6.6 11.4 10.6 8.9 9.1 8.2 10.5 3.8 2.6 1.4
2.7 2.3 1.1 1.1 3.1 3.7 6.5 11.0 17.4 10.7 12.4 8.5 7.9 8.5 9.7 9.4 12.0 8.8 10.3 12.0 10.5 10.3 8.6 11.3 7.8 2.1 0.7
3.7 2.3 6.2 5.5 7.2 8.1 11.1 14.1 15.8 14.0 14.2 10.4 10.9 13.9 13.0 10.7 10.8 11.9 11.8 13.6 11.9 10.0 8.9 9.8 10.1 7.1 0.1
4.9 6.1 8.9 7.6 9.4 9.5 10.3 11.9 13.4 11.4 12.9 8.1 11.7 17.3 21.0 11.7 5.6 8.0 16.9 15.0 10.6 11.0 8.8 7.2 10.0 10.1 1.0